Theta_e
317 317 316 315 314 313 313 313 312 311 310 316 314 317 317 309 309 314 322 323 320 313 307 311 309 305 307 310 307 310 308 308 310 308 309 307 309 307 304 304 303 304 305 304 304 305 303 303 302 304 304 304 307 309 309 310 309 309 307 307 310 315 305 301 302 305 309 311 313 316 318 316 316 315 316 314 311 311 308 305 308 304 306 303 303 300 306
317 316 316 315 314 313 313 313 312 312 310 311 313 317 313 311 311 313 321 322 318 311 303 305 305 306 310 308 307 310 309 308 308 308 309 308 307 305 305 305 306 305 306 306 303 306 300 304 303 303 305 305 310 310 309 310 308 307 307 305 309 302 309 302 298 298 301 305 309 308 312 313 313 312 314 315 315 314 313 312 315 303 304 305 302 297 304
317 316 315 314 314 313 312 313 312 312 312 313 314 313 313 312 311 312 316 320 316 306 309 308 307 307 307 306 305 307 307 309 310 310 309 310 309 307 305 305 306 305 307 305 306 307 303 302 306 305 305 306 310 310 309 310 310 310 314 315 311 305 305 303 296 293 291 292 295 298 302 305 311 313 312 313 312 313 312 306 308 299 305 306 304 302 316
317 316 316 314 313 313 313 312 312 312 312 311 317 317 315 309 304 308 312 314 313 313 316 313 310 308 308 306 306 307 306 310 311 311 310 310 310 309 307 306 306 305 304 304 303 304 306 303 304 305 304 306 308 310 310 310 313 321 324 314 311 306 306 305 303 300 297 300 305 310 309 309 306 309 310 311 313 313 312 310 307 302 305 307 309 308 311
317 317 316 314 313 313 312 312 312 312 312 312 314 318 315 313 307 307 305 312 311 309 313 311 311 307 310 305 307 305 306 309 310 311 307 306 306 306 307 305 303 303 303 303 303 304 304 306 305 304 304 306 308 310 310 310 314 325 316 315 311 308 303 305 305 305 305 306 309 311 311 307 307 305 307 311 311 311 310 307 305 313 308 302 312 316 311
317 317 316 315 313 313 312 312 312 312 312 311 316 315 316 308 312 314 316 307 303 306 308 312 311 312 311 307 310 306 306 307 305 308 310 309 309 303 305 305 305 305 303 304 302 304 303 305 302 305 305 305 308 307 309 308 315 317 312 313 309 305 301 305 304 303 305 307 309 311 311 312 311 309 308 309 311 311 308 309 312 313 308 305 314 319 315
317 317 316 315 314 313 313 313 312 312 310 311 318 313 314 314 315 313 317 309 310 311 313 311 312 311 310 309 310 306 306 306 308 309 308 308 308 307 302 303 305 305 306 305 303 306 301 302 306 305 306 305 306 305 307 308 310 310 309 310 314 307 302 304 304 302 304 305 307 309 308 310 309 309 308 311 310 311 311 312 313 315 314 316 316 318 318
317 317 316 315 314 313 313 312 312 312 309 316 318 313 308 311 309 311 314 313 310 312 312 312 310 307 312 307 309 308 307 306 309 310 308 306 307 307 304 304 305 305 306 307 303 306 306 305 304 309 306 306 308 305 306 306 309 309 306 308 314 305 302 305 304 303 302 304 306 307 307 307 306 307 309 309 310 311 312 311 312 314 316 316 316 318 319
317 316 316 315 314 313 313 313 312 311 310 320 315 313 315 314 317 318 311 307 309 311 310 310 309 307 310 307 309 309 309 308 310 310 312 309 308 308 305 306 306 306 305 306 305 308 308 308 307 309 308 304 309 305 307 308 305 307 306 307 309 306 303 307 306 300 300 303 303 304 306 306 305 305 306 307 307 306 309 311 315 313 310 314 316 316 318
317 316 316 315 313 313 313 313 313 311 309 319 318 311 319 318 318 318 316 308 314 307 311 310 308 304 309 309 310 309 309 311 310 308 312 313 313 311 309 310 307 306 305 304 306 309 309 309 310 310 311 311 311 310 309 308 306 306 306 309 305 306 304 303 302 299 299 303 304 303 304 303 300 302 306 309 310 312 312 313 316 316 319 313 311 315 324
317 316 315 315 314 313 313 313 313 311 316 314 313 314 316 313 313 317 317 307 310 308 308 308 305 309 309 309 309 311 311 311 310 306 309 310 311 311 311 311 309 307 306 307 312 313 313 314 312 312 311 310 309 309 309 309 308 307 307 306 306 308 305 303 306 298 299 302 303 304 300 293 294 309 314 314 310 314 311 310 314 320 322 318 323 323 328
317 316 315 315 314 313 313 313 313 313 313 317 317 314 315 315 316 315 314 306 306 309 306 305 306 308 306 310 309 309 309 310 309 310 308 311 312 313 313 312 311 307 311 312 313 313 314 313 312 312 310 310 309 308 308 306 307 310 309 306 306 306 306 303 307 300 298 302 302 297 291 295 309 317 316 320 319 318 316 317 318 320 323 325 324 324 327
317 316 315 315 314 313 313 313 313 313 312 317 316 313 316 317 314 316 316 311 306 307 305 306 307 306 307 308 307 307 309 310 310 310 310 309 310 312 313 312 310 311 315 312 312 311 306 305 307 307 306 307 307 307 306 306 307 308 308 309 306 305 304 305 303 303 302 299 298 289 292 304 307 312 315 320 319 317 316 314 316 318 321 324 323 326 329
316 316 315 315 314 313 313 313 313 314 313 314 316 315 316 316 313 316 315 310 307 310 308 307 307 306 306 306 306 307 308 308 309 311 308 311 310 311 313 314 314 315 313 313 311 309 307 306 302 303 303 304 305 302 305 307 308 307 307 308 308 306 307 305 301 305 296 298 297 297 304 303 306 307 312 312 310 313 314 307 312 320 325 325 325 326 328
316 316 315 315 314 313 313 313 313 313 313 312 317 316 316 316 314 314 319 313 306 309 311 304 308 307 307 307 308 306 305 306 305 306 310 312 310 311 313 315 315 313 313 310 309 309 305 304 300 299 301 299 295 299 306 303 308 309 310 310 312 313 305 306 301 301 303 297 295 296 296 293 301 308 314 316 317 318 318 314 309 317 319 325 326 325 326
316 316 315 315 314 313 312 313 312 313 313 312 316 315 317 317 317 315 315 314 313 304 309 312 310 308 308 309 309 306 305 306 307 307 306 308 309 312 313 314 314 313 311 309 311 307 306 301 299 298 296 299 303 300 299 303 302 307 310 310 309 311 312 311 302 300 301 299 295 294 293 297 306 309 313 318 319 319 320 312 304 317 323 326 327 326 325
315 315 315 315 314 313 312 312 312 313 313 313 313 314 315 318 315 314 313 314 312 305 313 312 312 311 309 307 308 307 309 306 308 303 302 304 308 310 311 314 315 311 310 307 309 306 303 302 303 302 304 306 298 297 305 301 300 302 307 309 307 307 305 305 301 300 301 298 296 294 299 298 311 316 315 317 320 318 315 298 302 315 325 326 328 328 328
315 316 315 314 314 313 312 312 312 313 313 312 314 314 315 320 318 317 313 312 311 310 314 315 311 308 307 310 308 311 310 309 308 310 305 308 308 308 310 310 308 310 312 305 307 303 302 301 299 299 298 309 309 304 292 302 300 300 301 303 301 302 303 303 298 300 299 300 298 300 301 310 315 316 318 319 321 315 302 295 311 320 324 327 327 329 329
315 315 315 314 313 312 312 312 312 312 313 312 316 315 316 318 319 317 316 313 311 306 315 313 317 314 315 315 311 312 312 310 311 305 306 305 309 311 310 311 312 305 307 305 307 304 301 302 306 303 301 303 307 298 307 300 300 305 304 301 301 302 303 302 304 299 298 299 297 298 302 313 316 319 319 321 314 300 299 316 321 326 326 326 327 328 329
315 315 314 313 312 312 311 312 312 313 314 313 313 311 315 319 319 318 314 311 313 311 314 315 315 312 316 312 310 310 311 310 310 307 306 304 315 312 309 305 310 310 308 309 303 306 302 301 302 306 301 302 304 310 303 305 309 304 303 305 301 302 299 298 299 302 302 302 298 295 290 311 316 319 318 319 307 310 318 323 327 327 328 326 328 329 329
315 315 314 313 312 311 311 311 312 313 314 314 313 312 312 318 318 319 319 315 311 308 311 317 316 315 315 314 314 314 312 309 313 309 310 310 315 309 299 302 308 307 305 307 301 302 304 302 304 303 306 306 309 304 299 302 304 312 311 306 303 311 299 299 301 305 297 298 296 295 306 315 321 317 308 316 318 324 326 322 321 328 328 329 329 330 331
315 314 313 312 312 311 310 311 312 313 314 314 312 313 311 316 319 319 320 317 311 308 313 317 318 316 317 317 317 317 316 315 316 316 312 310 317 312 311 312 312 312 313 313 308 308 307 306 307 304 301 305 308 301 306 300 298 308 311 309 298 310 304 311 300 309 303 302 306 317 320 320 321 322 323 323 325 325 326 326 324 326 328 331 329 329 330
315 314 313 312 311 311 311 311 312 313 314 314 313 313 310 314 316 320 319 311 314 314 316 315 316 317 318 318 319 320 319 319 317 317 317 311 310 313 312 311 312 316 316 317 312 313 309 308 304 307 304 304 304 303 307 303 300 305 302 308 307 315 317 317 310 306 314 316 317 319 319 319 322 321 325 324 326 326 327 326 326 330 330 331 330 331 331
314 313 312 312 311 312 312 312 312 312 313 315 314 312 312 314 316 317 315 312 309 306 312 316 313 311 312 313 318 321 321 319 319 319 320 318 308 310 315 316 316 314 318 322 320 313 315 313 312 309 301 307 308 302 299 299 303 306 305 305 308 313 314 311 305 313 304 299 319 316 318 322 322 323 325 328 326 327 327 328 328 327 328 331 332 333 332
313 313 312 312 311 312 311 311 311 312 314 314 315 315 315 313 315 315 311 306 308 307 303 308 311 314 316 318 318 317 318 322 323 321 319 318 316 311 313 315 318 315 315 318 321 317 317 311 309 306 301 313 310 302 308 304 304 310 301 305 307 309 315 309 308 310 306 306 319 321 322 323 325 324 324 325 325 327 328 328 329 329 330 331 332 333 332
313 312 312 311 311 311 310 310 311 312 313 313 315 313 312 312 319 320 316 314 313 310 303 304 309 317 318 315 313 316 319 320 320 320 320 319 319 318 316 318 319 323 320 318 318 315 314 314 313 308 304 311 314 306 307 310 313 312 306 305 314 318 314 304 310 307 311 318 317 320 322 323 324 325 327 327 327 328 327 328 329 330 330 330 330 332 331
313 312 312 311 311 310 311 312 313 313 313 314 314 314 314 315 317 316 312 311 308 305 307 304 311 314 316 313 316 317 317 317 318 318 319 320 319 320 319 319 318 318 317 316 317 317 315 315 312 307 308 311 313 312 314 310 309 308 306 314 316 311 306 313 311 306 306 306 313 319 311 314 319 322 324 325 328 330 329 328 329 329 329 328 326 327 329
313 312 311 311 310 311 312 313 313 313 313 314 314 315 316 314 316 317 318 316 311 305 306 306 307 312 317 313 317 317 317 318 318 317 317 318 320 319 318 317 318 315 316 314 312 312 312 308 305 316 316 316 311 309 316 316 314 310 309 312 315 309 312 311 306 305 303 313 320 323 322 320 320 322 324 327 328 327 326 328 328 329 330 328 327 325 325
312 311 311 310 311 311 312 313 313 313 313 313 315 314 315 317 317 316 316 318 317 310 308 309 312 311 308 311 315 315 317 318 318 317 317 317 317 318 317 317 316 316 314 313 313 314 313 311 318 312 311 319 313 309 309 304 304 303 309 317 316 316 321 315 315 314 314 318 322 323 320 318 320 322 325 325 328 328 327 328 328 328 329 329 327 326 325
311 311 310 310 311 311 311 312 313 312 313 314 312 310 307 311 317 317 316 316 316 313 304 303 302 309 316 313 312 314 315 316 316 317 316 316 316 316 317 317 317 316 315 314 316 312 314 315 314 316 318 323 313 311 306 306 306 308 316 318 319 322 321 322 323 319 316 323 324 323 321 320 322 323 322 327 332 325 323 325 328 328 328 326 325 326 326
311 310 310 311 311 311 312 312 312 312 312 312 311 305 306 305 312 318 316 317 318 312 307 307 304 311 310 316 315 313 314 315 316 316 316 316 316 317 319 319 319 318 313 315 314 315 314 309 311 312 318 318 317 309 306 307 305 307 313 317 320 322 320 322 324 325 325 325 323 321 321 321 322 321 321 322 326 325 325 327 326 327 327 327 327 329 328
311 310 310 311 310 310 311 311 311 312 313 310 308 307 310 309 312 317 316 317 317 311 307 303 304 306 308 311 315 316 314 315 317 316 317 318 316 317 318 317 317 320 318 317 317 315 312 315 312 314 314 317 318 310 309 307 305 307 314 317 324 324 324 323 324 327 327 325 321 317 315 316 318 314 314 325 324 326 324 324 326 325 325 326 326 326 324
310 310 310 310 310 310 311 311 311 312 312 312 313 313 313 313 313 315 317 317 314 311 312 306 301 306 304 309 312 314 315 317 315 314 314 319 317 318 314 317 319 317 318 317 310 310 315 314 316 311 316 324 313 310 308 305 307 313 315 323 324 325 323 324 325 327 324 322 319 313 311 315 320 322 326 327 327 325 324 322 322 323 324 324 324 323 321
310 310 310 310 311 311 311 312 312 311 311 310 309 311 315 313 314 312 318 317 313 314 312 305 301 301 304 312 305 313 315 311 311 314 310 317 321 315 313 315 318 315 317 312 313 313 314 314 312 312 313 313 314 309 304 308 311 313 317 322 324 323 323 323 325 324 324 322 321 319 318 324 326 326 327 327 325 324 323 323 322 321 321 321 321 321 321
310 310 310 311 311 312 312 311 312 311 309 309 311 316 318 312 314 314 315 315 307 306 305 306 306 300 300 303 302 307 315 313 309 313 309 314 319 315 315 310 314 308 310 317 312 311 309 311 315 308 305 311 308 304 306 310 313 315 321 320 322 322 321 320 322 325 324 327 327 322 324 326 324 324 325 326 325 323 321 320 322 321 319 318 318 318 319
310 310 311 311 311 311 312 311 311 309 307 308 312 318 316 316 316 319 318 317 312 304 304 305 305 301 302 299 297 307 313 310 314 316 316 317 313 319 315 312 306 310 319 312 306 310 309 315 312 304 311 305 303 305 309 315 314 315 318 320 323 322 321 322 323 326 327 328 328 325 324 323 323 325 327 327 326 325 323 321 321 321 319 317 316 317 317
310 310 311 310 310 309 306 307 310 310 311 316 317 318 318 319 319 318 315 312 314 314 305 305 302 303 304 303 307 310 311 303 311 312 312 310 311 314 312 309 304 312 310 309 309 308 312 317 310 307 308 305 307 312 317 318 316 316 318 322 324 325 324 325 326 326 324 325 325 323 321 323 326 327 326 325 326 325 323 321 320 319 318 318 319 318 318
310 310 309 307 307 303 305 307 310 315 318 316 317 315 313 315 307 309 309 306 310 312 309 307 302 306 310 305 302 314 309 308 311 309 309 313 309 309 313 309 310 307 302 305 308 316 316 312 307 304 306 309 316 318 319 320 321 323 324 324 324 325 327 328 326 324 322 321 322 322 323 324 325 326 325 324 325 324 324 324 324 322 321 320 320 320 319
309 309 307 307 305 304 308 312 320 317 316 317 316 310 308 312 309 303 305 307 309 304 309 306 303 307 306 305 306 314 309 306 306 309 305 313 310 304 310 304 309 308 302 304 309 316 305 307 308 307 304 312 314 317 320 321 324 325 326 326 326 326 327 326 326 324 323 322 324 325 325 322 323 324 326 325 325 324 325 325 324 323 322 321 321 321 321
307 304 305 305 305 309 317 317 317 317 315 309 311 310 304 310 303 298 309 300 300 306 307 303 308 308 308 305 304 304 315 308 304 303 307 308 315 307 309 308 310 305 299 300 305 313 304 302 307 305 303 308 311 318 319 322 321 328 326 326 326 327 327 326 325 327 328 328 329 329 328 328 328 326 326 325 323 322 322 322 325 325 324 323 322 322 321
306 307 307 306 310 311 314 318 318 316 311 308 308 307 305 298 305 307 305 301 299 302 309 306 310 307 310 310 308 304 315 315 316 312 312 307 316 313 305 303 314 303 301 300 310 310 307 303 304 303 305 309 312 318 319 321 321 324 327 326 326 327 326 325 325 327 327 327 328 329 329 329 329 328 326 326 325 324 323 323 323 324 325 324 323 323 323
309 307 309 309 309 312 314 313 312 308 308 311 301 296 300 301 306 303 304 297 299 303 305 307 303 305 305 309 308 309 311 316 317 314 311 305 310 308 305 309 307 301 296 305 314 308 306 301 301 301 306 313 317 320 319 317 319 325 323 324 324 326 325 324 324 326 328 329 328 329 330 329 329 328 328 327 325 325 324 323 323 324 325 325 325 324 323
309 310 311 308 309 309 312 302 310 307 295 294 294 291 298 293 299 299 301 305 309 306 307 313 311 313 313 315 310 312 313 318 312 310 309 306 311 311 307 304 304 294 303 312 307 304 302 300 298 302 310 315 317 319 320 318 320 325 325 325 326 327 326 324 324 325 326 328 329 330 329 329 329 328 328 328 326 326 326 326 324 324 325 325 324 323 323
311 310 305 306 305 308 308 291 308 301 294 296 294 289 294 295 298 301 299 302 305 304 307 304 306 305 303 311 308 308 311 313 313 315 310 313 308 305 304 297 300 308 311 304 304 300 302 304 304 306 313 316 316 318 320 320 322 325 325 324 325 326 325 325 325 325 325 327 329 330 330 330 330 329 328 327 325 325 325 326 326 326 327 326 324 323 324
304 303 304 302 298 304 298 289 305 297 290 295 298 298 298 295 298 300 300 307 307 303 308 309 310 307 305 310 311 312 310 307 314 308 303 308 304 305 301 297 305 307 301 299 301 303 302 301 308 311 313 315 316 318 322 321 324 323 324 324 324 325 324 324 325 325 324 326 328 328 329 329 328 328 327 326 327 328 327 326 327 326 325 324 323 323 324
302 296 295 292 289 294 295 291 294 292 301 302 300 302 301 302 303 304 308 309 309 308 307 309 311 310 308 310 303 304 309 310 304 304 307 308 301 298 306 309 306 300 300 300 295 293 298 303 307 310 314 316 318 319 322 323 325 326 325 323 324 324 325 325 325 325 325 326 327 328 328 328 327 327 327 328 328 328 329 329 328 326 325 324 323 323 324
303 306 302 299 293 296 303 293 296 300 303 303 304 305 305 306 308 308 311 310 308 312 310 314 313 312 309 307 306 307 310 309 303 309 308 302 298 302 307 303 296 298 294 294 296 299 302 308 311 315 316 317 317 319 321 325 325 325 325 326 325 325 325 324 325 325 325 326 326 327 327 327 327 328 329 328 329 330 328 328 327 327 325 323 324 324 323
294 303 306 291 290 296 295 300 305 305 306 307 307 308 309 310 308 306 311 312 312 312 311 312 310 311 307 312 310 305 307 308 304 305 307 303 304 301 297 298 297 299 301 299 301 305 306 309 310 313 317 317 318 319 322 324 324 325 326 325 325 325 324 325 326 326 326 325 325 325 326 327 328 328 328 328 328 328 327 327 327 327 326 325 323 323 322
304 297 294 294 300 301 301 305 304 301 304 307 308 308 308 307 307 310 312 314 313 313 315 312 309 305 304 308 305 304 301 307 297 298 306 303 298 293 294 292 295 294 302 304 303 305 308 313 316 317 317 318 320 321 322 324 324 325 324 325 324 325 325 326 327 327 326 325 326 326 326 327 328 327 328 327 325 325 327 327 326 326 325 323 322 322 322
297 297 301 298 300 302 305 306 304 301 303 305 306 305 308 307 308 310 314 314 315 314 313 312 311 305 304 305 296 300 299 303 302 302 301 298 299 300 295 292 295 296 300 307 306 310 316 315 317 317 319 320 321 322 324 324 324 324 325 326 325 326 325 326 327 326 326 326 326 327 327 326 326 326 325 325 325 325 325 325 325 324 324 323 322 322 321
305 301 300 306 301 301 303 298 298 299 300 302 304 305 306 307 309 310 314 314 314 312 309 305 305 305 300 297 296 292 298 307 302 301 299 298 302 299 296 295 301 305 308 311 312 314 317 317 317 318 319 322 324 325 326 326 326 326 325 324 324 325 325 326 326 326 327 327 327 323 325 325 326 326 326 326 324 322 322 321 323 323 323 322 322 322 320
295 294 298 304 306 305 305 306 305 304 305 306 306 307 307 306 310 313 314 314 312 308 307 311 307 301 295 293 299 303 308 302 300 301 296 300 305 300 300 303 304 309 309 310 312 314 316 320 323 323 324 324 325 326 327 327 326 326 325 324 323 324 324 324 325 325 325 324 324 325 325 326 326 324 323 322 322 320 319 319 320 322 321 321 321 322 321
Wind_Speed
13 14 14 15 16 16 17 19 19 20 23 12 8 7 4 3 4 4 2 4 5 5 8 4 6 8 3 5 3 2 5 5 3 5 6 6 4 4 6 5 7 7 5 4 6 5 3 2 4 2 5 1 0 5 0 2 4 6 2 5 4 2 5 6 7 1 6 5 3 5 3 1 5 5 4 6 5 3 4 3 5 7 4 5 2 3 3
12 13 13 14 16 16 17 18 18 17 17 10 9 6 4 3 2 4 4 3 5 7 8 7 8 8 4 6 4 5 3 6 6 8 5 6 6 7 6 6 7 2 5 4 6 6 6 7 5 5 2 3 7 2 1 3 4 5 5 6 7 8 2 6 7 6 7 7 5 4 3 7 5 2 2 2 1 2 4 3 3 10 6 7 5 6 1
11 12 13 14 15 16 17 17 17 16 15 12 6 6 5 4 1 2 3 4 6 9 5 6 5 8 8 8 10 8 7 6 7 4 5 4 5 4 7 5 4 7 5 6 5 5 8 2 6 6 4 2 6 3 2 2 5 1 4 5 2 6 2 4 6 8 9 9 8 5 6 9 4 1 2 4 2 5 7 6 10 8 1 5 4 6 1
11 11 12 13 14 16 17 17 17 16 15 12 5 4 5 2 3 5 5 4 7 7 3 6 6 3 6 7 8 8 7 7 5 5 6 4 4 7 2 3 6 6 8 8 8 8 7 8 3 6 5 4 6 3 2 1 2 5 3 5 4 4 3 5 4 6 9 4 1 5 2 3 8 3 6 4 4 1 4 2 3 5 4 3 1 5 5
11 10 12 12 13 15 17 17 17 17 15 10 4 4 4 4 4 0 4 5 6 7 5 6 6 7 3 7 6 10 11 4 6 5 6 5 5 5 8 5 9 8 9 8 8 6 6 7 5 7 6 5 3 7 3 4 3 2 3 6 5 3 7 4 6 6 7 6 3 2 4 7 6 5 11 7 4 1 4 4 2 4 3 6 2 5 2
11 11 12 13 12 14 17 17 18 18 15 11 4 5 2 3 2 2 4 4 3 7 7 5 5 5 3 5 1 8 10 8 7 7 6 1 5 6 6 8 11 8 10 7 7 7 8 6 8 5 5 4 6 7 9 8 8 7 5 4 5 6 8 2 5 6 4 4 4 1 6 5 1 4 5 9 8 6 4 2 1 1 4 4 2 3 5
11 10 12 13 12 14 16 18 18 19 18 11 4 5 1 3 2 2 2 5 1 4 5 1 4 5 7 5 6 9 9 9 8 3 5 6 5 8 7 10 12 12 10 9 7 5 7 8 7 7 5 9 4 6 6 8 5 8 5 5 2 5 8 3 4 7 6 5 5 3 6 4 7 8 7 7 5 8 7 3 3 2 2 2 3 3 4
10 9 12 13 12 14 15 17 18 19 23 10 5 1 5 3 5 1 1 5 5 3 3 4 4 8 5 6 8 10 9 11 6 6 6 5 6 3 9 8 8 10 10 9 9 8 10 5 6 8 8 6 6 5 6 2 6 6 6 4 5 7 0 1 6 7 8 5 4 6 6 6 9 8 7 9 7 6 5 9 4 5 3 2 4 4 3
10 8 12 13 11 12 14 16 17 19 20 4 3 1 3 4 3 3 5 6 2 3 5 5 6 6 6 7 5 6 8 8 1 4 4 8 4 4 4 2 4 5 7 10 12 10 9 8 7 5 9 6 7 7 3 5 5 4 5 5 5 6 4 2 5 7 7 6 6 6 5 7 9 9 9 9 10 9 6 6 3 6 7 4 5 6 3
10 8 10 13 10 10 13 14 16 17 20 5 4 1 4 4 3 4 4 5 3 5 3 5 3 8 6 4 4 5 5 1 1 7 7 7 6 2 1 3 4 5 8 11 13 11 9 9 2 0 4 3 1 5 3 4 5 3 4 1 6 6 5 5 6 8 8 3 4 5 7 8 11 8 6 7 6 8 9 9 8 6 6 7 7 6 2
10 7 10 12 10 10 12 13 14 15 12 6 5 3 4 4 3 3 4 6 3 4 4 4 7 2 3 2 6 5 5 3 0 7 3 3 5 2 2 4 4 4 9 7 3 5 4 4 3 2 3 4 5 4 4 4 3 4 4 4 4 3 6 5 2 6 5 1 3 4 7 10 4 2 4 4 6 6 9 10 7 6 4 3 3 4 4
11 7 8 10 10 8 11 12 12 12 11 5 4 4 3 3 4 4 5 6 3 1 4 5 4 1 7 1 4 5 6 5 4 2 7 5 3 2 6 6 5 6 5 8 4 4 6 5 6 4 4 5 5 5 6 6 4 5 4 7 3 6 5 5 2 6 5 1 4 7 9 5 5 2 3 3 3 4 7 10 11 10 7 8 6 1 3
13 8 8 9 9 8 9 11 10 10 10 7 4 3 2 2 4 4 4 5 6 3 4 4 2 6 5 6 7 8 8 7 6 7 8 9 9 8 6 6 6 6 8 6 6 9 8 8 6 6 6 6 5 7 7 7 7 5 5 5 7 5 6 3 6 5 4 6 6 7 3 4 5 0 1 1 5 5 8 11 12 11 9 7 6 2 3
14 9 8 9 9 8 8 10 10 9 9 9 5 3 3 3 3 4 3 5 5 3 3 7 7 8 8 8 8 8 8 10 9 6 8 8 10 10 7 5 6 6 7 5 8 8 6 7 6 7 7 7 6 6 8 4 4 6 6 5 6 9 6 4 6 3 8 4 5 9 7 10 6 4 3 4 3 4 4 8 5 6 3 5 5 3 3
14 10 8 9 9 7 7 9 10 9 9 9 6 4 3 3 3 3 4 4 7 6 3 6 4 3 3 3 3 5 6 7 7 8 7 5 8 8 7 6 4 6 5 7 6 7 7 7 8 8 8 7 8 4 6 7 5 4 2 3 5 4 9 2 7 4 6 7 8 7 7 8 2 3 2 2 2 3 2 5 9 7 8 7 6 5 4
13 9 8 7 8 8 7 8 9 9 8 9 6 3 3 2 3 4 4 5 5 7 2 2 4 3 4 3 2 6 5 5 5 5 7 8 9 7 3 2 3 5 7 7 6 8 8 8 10 9 9 8 2 1 5 4 4 5 4 2 5 5 5 5 8 5 5 7 8 7 7 3 1 1 3 2 2 1 1 6 6 6 2 4 7 7 6
14 11 8 7 8 8 7 8 9 8 7 5 5 4 3 4 3 3 4 4 4 7 3 1 3 4 5 5 5 6 4 5 2 5 5 6 4 3 4 3 2 6 10 9 6 8 8 9 8 9 3 4 3 3 2 4 5 4 4 5 7 7 7 7 9 10 7 7 8 8 4 5 5 5 4 3 2 1 4 7 4 1 2 2 5 6 6
16 13 9 8 8 8 7 7 9 9 6 4 6 4 4 2 3 3 4 5 6 7 5 3 6 6 4 4 4 4 3 4 6 4 7 5 5 5 3 3 5 7 7 9 8 9 10 9 10 9 7 4 1 2 4 1 6 4 4 5 6 8 7 7 10 9 8 7 8 8 7 2 7 5 5 5 2 2 7 5 4 5 1 1 2 4 6
15 13 9 7 8 7 6 8 8 9 7 5 6 6 5 3 2 3 4 5 4 5 3 2 3 6 5 4 6 5 4 5 4 5 4 6 2 4 7 3 4 4 8 8 8 10 10 10 6 7 7 4 4 4 3 4 4 3 3 6 6 6 5 6 7 9 9 7 9 8 6 4 4 6 5 6 4 7 4 5 5 1 1 2 2 3 5
14 12 8 8 7 6 6 7 9 9 8 4 4 5 4 2 4 5 4 5 4 8 8 7 6 10 4 5 5 4 5 6 6 6 5 5 6 7 3 6 6 4 6 7 11 9 10 10 10 6 9 7 5 1 4 4 1 4 6 4 7 2 6 7 8 6 5 5 8 5 6 3 4 9 6 4 7 3 2 3 2 2 1 1 2 2 3
13 8 8 7 6 5 6 8 8 9 9 5 4 4 4 3 1 3 4 5 6 7 4 3 5 7 7 9 9 10 10 8 3 4 3 6 5 3 4 2 3 2 5 9 11 12 8 11 8 8 3 5 5 3 5 3 5 2 4 3 7 4 7 4 4 3 7 6 7 3 3 4 6 8 3 4 1 3 4 5 2 4 2 0 1 2 3
11 8 8 7 6 5 6 9 8 9 9 6 4 4 5 4 4 2 3 3 7 9 7 9 9 11 11 11 10 9 10 11 11 7 7 7 2 5 6 6 5 3 3 5 8 5 6 6 4 6 8 5 3 7 3 7 8 5 2 1 7 6 6 4 4 3 7 5 4 5 2 3 3 4 2 2 4 3 4 4 5 4 1 1 1 2 5
11 9 7 7 6 6 7 7 8 9 8 6 4 5 5 2 4 4 3 6 7 10 11 11 10 12 12 14 14 14 14 13 12 11 8 6 7 5 6 5 4 1 2 3 5 6 5 8 8 6 6 6 7 5 4 7 4 4 5 8 4 0 2 1 4 4 2 5 1 2 1 1 1 4 1 3 2 2 2 4 3 2 2 1 2 3 6
7 8 8 7 8 7 7 7 7 7 8 7 6 6 4 3 4 2 5 6 6 8 8 8 6 4 1 0 4 6 8 10 13 13 9 8 8 5 5 6 3 4 2 5 3 5 5 5 2 3 7 5 6 8 9 8 7 2 5 5 5 4 4 5 5 2 2 2 5 3 2 2 2 2 1 1 2 2 3 1 2 1 2 2 2 3 5
9 8 8 8 7 7 6 7 7 6 6 8 6 7 5 5 5 5 5 4 3 4 5 2 7 5 4 2 4 6 8 7 7 10 11 11 12 9 2 7 3 5 5 7 4 6 5 5 5 6 10 5 5 9 3 4 3 3 8 4 2 5 6 7 7 4 7 2 3 2 2 0 1 2 2 3 3 2 2 1 2 3 4 4 4 4 4
8 8 8 7 6 6 6 6 6 5 5 5 6 5 7 6 3 5 5 5 4 4 5 6 1 5 2 5 5 5 3 5 7 10 12 13 14 12 12 9 7 4 6 6 5 5 6 6 6 7 8 3 3 6 4 1 2 4 6 3 2 4 8 5 4 6 4 2 3 2 3 2 3 2 2 2 1 3 3 3 4 6 7 6 5 4 6
8 8 8 7 6 6 6 7 8 7 4 5 6 6 7 6 5 6 5 4 4 5 6 6 4 3 3 11 12 9 9 9 10 10 10 13 13 12 11 10 9 7 7 6 5 6 5 6 7 8 7 1 5 2 2 4 4 4 6 5 5 5 7 3 4 6 6 5 4 9 5 4 6 4 3 3 4 5 4 4 5 6 8 8 9 10 9
8 8 6 5 6 7 6 8 9 8 5 5 5 6 6 7 7 6 6 7 6 5 7 7 8 9 13 14 5 3 4 6 8 9 10 11 13 12 10 10 8 7 5 5 4 6 5 6 8 2 3 4 6 4 1 3 2 4 6 4 7 7 5 4 6 5 4 3 6 6 3 6 5 5 5 4 3 4 4 4 4 5 8 9 11 13 12
7 7 6 6 5 5 5 6 4 2 3 5 6 6 8 9 8 8 8 7 5 5 6 9 10 9 4 5 7 6 4 5 7 9 10 11 12 12 11 10 9 7 6 5 6 6 6 5 1 4 3 2 5 4 5 7 6 7 2 5 7 3 2 6 2 3 3 3 8 6 5 6 8 7 6 5 3 2 4 4 3 5 9 9 11 12 14
5 6 6 4 5 6 5 5 5 4 5 5 5 4 4 3 6 7 8 7 6 4 4 5 6 2 6 6 4 3 3 5 6 8 10 9 10 10 10 9 8 7 5 5 3 5 1 1 3 3 2 2 2 4 3 3 6 4 3 2 3 3 3 1 3 4 4 9 8 7 10 10 9 8 7 6 5 5 4 4 6 8 10 12 14 13 13
5 5 5 5 5 5 5 5 5 6 6 6 5 4 5 4 5 4 4 7 7 4 3 4 8 8 8 3 4 4 4 3 5 7 9 10 8 9 7 6 5 5 5 5 6 4 2 3 4 2 1 2 2 6 7 6 6 5 2 1 3 4 5 4 3 4 9 10 11 11 11 10 9 9 9 8 8 11 8 7 8 9 11 12 11 13 12
5 5 5 5 5 5 6 5 6 7 6 6 7 2 4 4 3 2 3 6 6 4 4 6 6 5 4 3 2 1 4 5 5 6 5 5 6 5 6 7 4 4 1 3 2 4 4 1 1 5 3 1 5 2 3 5 6 5 1 1 2 3 4 5 5 7 10 12 14 12 11 10 9 8 9 8 8 9 13 8 7 11 13 13 14 13 11
5 5 5 6 7 7 7 8 8 6 5 8 14 16 13 11 6 2 5 6 5 4 3 4 5 4 4 2 3 1 3 3 6 7 5 4 4 6 6 7 5 4 2 2 2 1 1 1 2 5 3 2 4 3 4 7 6 4 2 2 3 4 5 6 6 9 11 12 13 12 12 11 9 10 11 10 9 9 9 11 8 9 12 12 11 11 11
5 5 5 6 8 8 8 8 8 9 10 8 6 7 7 12 10 7 5 6 3 3 2 4 4 5 5 2 6 3 4 3 4 5 6 2 3 6 6 7 6 3 3 2 1 1 3 2 4 1 2 3 2 5 6 7 10 5 2 3 4 6 6 7 7 10 10 11 6 7 11 11 10 10 10 10 11 9 8 9 11 13 12 11 9 8 7
6 6 6 7 6 6 7 7 5 6 5 5 5 3 6 10 11 10 8 5 4 4 3 4 3 5 5 3 5 3 4 4 4 2 5 3 4 5 6 7 5 6 5 3 2 3 3 2 3 1 2 5 5 7 8 6 0 1 2 4 6 7 8 8 8 10 10 7 5 10 12 13 13 11 11 11 10 10 10 8 9 13 12 10 9 9 7
6 5 6 6 8 7 6 6 6 5 5 5 3 7 9 8 7 7 8 3 3 3 3 2 2 5 3 5 4 3 4 1 1 2 1 2 5 2 5 5 8 4 2 7 6 5 2 4 4 7 5 6 10 9 6 5 5 3 2 3 7 9 9 10 10 11 8 8 9 12 13 13 13 12 10 11 11 11 11 11 9 10 13 14 12 10 9
5 6 7 8 5 4 5 5 4 7 2 3 6 8 12 10 5 4 3 3 3 2 3 4 5 5 5 4 3 2 3 3 1 3 4 5 3 3 6 6 8 4 4 7 8 7 6 8 8 6 3 8 8 8 4 3 3 3 1 0 4 6 5 7 12 12 10 10 11 13 13 13 11 10 11 11 12 12 12 13 12 12 12 12 11 10 10
4 6 5 4 4 4 4 5 4 5 12 10 11 8 5 5 4 5 4 4 4 5 5 5 8 7 4 4 5 3 4 1 2 3 3 1 4 4 2 5 3 3 8 5 5 6 6 5 8 10 8 12 8 4 5 3 2 1 1 2 4 7 5 7 13 13 13 12 11 13 13 12 12 11 12 13 14 14 12 11 10 10 11 11 10 11 11
6 5 4 4 3 4 1 5 6 8 7 4 2 3 4 3 4 4 5 4 3 6 6 6 7 7 7 7 6 2 3 3 4 3 4 3 2 3 2 5 4 4 4 7 7 5 8 8 7 8 9 7 7 7 5 3 2 2 1 2 4 7 8 10 14 17 17 15 16 18 17 16 16 14 12 13 12 12 13 13 13 12 11 11 11 11 12
4 5 4 4 5 1 3 3 2 3 4 4 4 4 2 4 5 2 3 2 3 4 3 7 6 7 7 7 5 4 3 4 4 4 3 4 2 2 2 2 3 3 5 8 4 6 7 8 7 7 9 8 8 8 7 4 3 2 2 2 3 6 9 11 12 10 9 7 13 15 15 16 17 16 15 14 13 13 14 14 15 14 13 13 13 12 12
4 3 5 4 3 3 2 2 1 4 3 4 4 3 2 1 4 2 2 4 5 3 4 5 3 4 5 6 6 6 4 2 0 0 4 1 2 1 2 4 3 5 5 6 5 5 6 7 7 9 8 5 5 5 6 4 4 2 3 3 4 5 9 10 12 10 9 9 10 12 13 15 16 15 15 15 14 13 14 14 14 15 16 15 15 13 11
1 3 4 4 4 4 3 4 4 3 2 1 1 3 3 2 1 3 4 5 4 3 5 5 6 6 5 6 4 5 3 1 2 2 2 4 3 4 4 2 2 5 4 3 2 4 4 8 8 9 5 4 5 5 4 4 5 5 5 5 5 7 9 10 12 11 7 10 12 12 13 16 15 14 14 13 13 13 13 14 15 16 16 15 14 13 12
4 5 4 3 3 3 3 2 3 1 1 2 1 1 2 2 5 5 4 4 2 4 3 2 1 0 2 2 3 3 1 1 3 2 4 2 2 3 2 3 3 4 3 3 3 5 7 8 7 6 2 3 4 5 5 5 5 4 5 6 6 7 8 9 10 10 7 9 10 11 14 16 15 14 14 13 13 14 13 13 15 14 13 13 12 13 12
4 4 4 4 3 3 3 2 2 2 1 2 3 3 5 7 6 5 5 4 4 4 4 4 4 5 4 4 3 4 4 3 3 2 3 1 2 4 5 3 6 1 2 4 5 8 8 7 7 5 2 3 4 6 6 6 6 4 5 6 6 7 8 8 8 8 8 8 10 11 13 13 13 13 13 13 15 15 13 13 13 13 13 12 12 11 11
3 3 3 2 1 1 1 1 2 3 3 5 5 6 5 5 2 5 4 3 2 0 3 2 1 3 3 4 2 2 3 3 4 3 2 2 5 4 5 2 1 2 4 6 6 7 6 8 4 5 7 8 7 6 5 6 6 7 6 7 8 8 9 10 10 9 9 10 12 13 13 13 13 13 13 13 13 14 14 14 12 13 12 12 12 11 10
3 2 2 2 0 1 2 1 2 2 5 5 6 6 6 5 1 1 4 1 0 1 2 2 1 2 3 3 3 2 4 3 5 4 3 2 3 4 2 2 2 5 5 6 5 5 7 6 7 6 5 7 7 7 7 7 6 6 8 9 10 11 10 11 10 10 10 10 11 12 12 13 13 13 12 12 12 12 12 12 13 13 12 12 12 11 10
4 3 1 0 1 2 4 3 6 6 2 4 5 4 5 2 2 2 1 1 2 1 1 1 1 2 3 1 3 3 4 3 4 3 1 3 3 3 2 3 6 4 5 7 7 7 6 6 4 2 2 3 4 6 8 7 7 9 9 8 10 11 11 11 11 11 10 11 12 12 12 12 13 12 12 11 11 11 12 13 13 14 13 13 12 11 11
2 1 2 2 3 3 7 7 4 4 3 3 1 2 1 1 3 3 1 1 2 2 3 3 4 3 4 3 4 4 4 4 4 3 2 1 0 2 0 2 5 5 5 6 7 5 5 5 6 5 2 3 5 6 7 7 8 9 9 8 10 11 12 12 12 11 12 13 12 12 12 13 13 12 12 13 12 11 11 11 12 12 11 12 12 12 12
2 0 1 2 2 2 4 2 3 6 5 3 2 2 2 3 2 1 1 2 2 1 2 2 3 3 3 2 5 4 3 5 4 2 2 3 3 2 2 2 4 6 5 6 7 5 4 5 4 2 2 3 4 6 8 8 8 9 10 10 10 11 11 12 12 12 13 11 11 12 12 12 12 12 12 12 12 11 10 11 12 10 11 13 13 12 12
1 1 1 2 3 5 3 1 3 6 5 4 4 4 2 3 2 3 2 0 2 2 2 3 1 2 2 4 3 5 4 5 3 3 5 5 3 2 0 4 5 4 3 5 6 6 8 3 3 3 2 2 2 3 6 7 8 8 8 9 9 10 10 11 12 13 12 11 12 12 13 12 11 11 12 12 11 11 11 11 10 11 11 11 12 12 12
1 2 3 5 6 2 2 5 4 4 4 4 4 2 2 2 1 2 2 2 1 2 2 3 3 3 3 3 2 3 3 4 5 5 3 2 2 2 5 6 6 2 6 6 2 3 4 4 4 3 1 1 2 3 4 6 7 8 9 11 11 11 9 9 10 10 10 10 11 13 12 11 10 11 11 12 13 12 11 10 10 10 11 10 10 11 11
1 2 4 6 8 7 6 4 4 4 2 1 2 2 2 2 1 1 0 2 1 4 4 3 4 3 1 3 5 2 3 3 4 4 5 4 4 6 6 6 2 2 10 4 3 3 4 4 3 3 2 2 2 3 4 5 7 8 10 11 11 12 12 11 11 10 10 9 10 10 10 11 12 11 12 13 13 12 11 10 9 10 10 9 9 9 10
Wind_Direction
339 338 338 340 341 343 345 345 343 347 350 2 353 313 264 276 10 78 111 191 263 233 229 180 203 227 221 60 216 137 205 247 149 228 173 210 210 205 220 216 222 217 256 190 243 218 250 229 258 40 224 227 94 81 133 297 250 264 170 215 135 250 280 263 252 183 149 128 191 268 304 145 205 188 261 245 247 255 255 243 323 275 220 237 216 269 260
335 336 339 340 342 343 345 344 342 347 4 350 318 289 333 328 293 134 106 176 245 239 222 204 213 222 170 228 227 179 261 224 192 223 178 235 173 222 212 192 239 313 202 212 246 169 254 159 251 203 226 204 104 139 237 239 237 277 48 305 70 271 122 304 276 232 214 203 186 175 317 285 254 159 117 319 181 220 196 195 285 264 247 270 278 269 340
329 336 341 341 345 344 342 341 338 344 350 349 323 323 330 291 227 260 129 176 211 223 259 266 233 204 216 209 221 202 213 224 250 261 217 203 253 225 219 244 167 209 192 224 237 194 269 283 191 314 211 139 150 143 277 276 277 162 35 317 352 287 332 278 279 263 240 234 236 241 196 205 229 110 138 208 206 168 143 207 197 235 205 270 263 264 148
327 334 342 343 347 344 339 337 337 337 345 338 297 291 282 279 248 151 170 179 194 249 289 279 288 254 212 222 223 223 219 174 205 228 242 255 247 249 329 188 226 200 194 212 216 217 199 259 151 219 210 185 177 139 191 271 315 42 352 256 257 292 299 278 292 292 289 341 286 241 328 278 247 162 251 177 214 242 246 329 261 239 285 258 150 264 293
327 332 342 346 348 343 337 335 335 335 338 349 307 275 269 313 276 108 185 160 211 225 206 232 231 254 220 235 194 210 230 190 179 183 238 162 238 219 229 201 204 190 215 215 225 216 211 201 249 215 242 192 167 150 209 192 136 129 210 236 269 253 265 211 251 268 288 318 310 106 56 255 212 220 253 235 225 262 263 246 83 173 221 252 179 274 289
331 334 341 346 349 344 336 335 333 333 333 331 269 285 258 273 68 294 16 302 183 203 211 218 236 235 231 248 175 239 220 205 217 156 247 170 193 242 174 228 228 212 215 208 231 187 227 194 231 198 244 249 181 212 187 233 139 192 215 189 258 285 281 155 254 251 262 284 314 302 180 232 25 1 333 297 322 261 244 123 132 261 261 288 335 301 272
332 332 340 344 351 343 335 335 334 333 330 323 262 300 12 285 343 333 17 252 329 296 23 303 262 240 223 244 229 238 231 222 224 276 161 204 200 224 238 212 219 225 215 213 240 198 224 206 227 235 198 232 218 231 183 215 206 222 232 197 252 275 256 295 267 288 258 241 256 249 268 251 230 209 221 252 231 276 320 283 182 217 289 243 279 280 280
326 333 340 341 350 343 334 336 335 336 332 312 254 344 311 18 329 39 227 272 285 267 248 232 232 234 160 235 221 239 233 238 198 210 241 227 200 163 246 243 226 228 224 215 234 205 236 272 219 197 243 199 235 272 288 350 173 246 247 204 162 250 267 146 256 265 253 235 234 248 257 263 265 254 238 247 270 268 210 264 256 273 243 274 283 259 245
321 333 336 339 347 344 334 338 339 338 338 295 299 11 9 336 330 331 308 274 210 245 236 228 232 239 195 226 212 226 233 242 245 250 217 254 249 196 239 303 270 245 244 232 236 235 230 234 248 177 205 248 180 254 147 239 267 209 253 228 176 219 250 213 260 261 250 209 248 261 279 269 271 271 257 256 261 262 265 269 325 302 310 306 266 240 189
321 329 336 335 343 342 338 340 342 345 326 307 311 310 21 274 204 250 283 272 112 255 173 237 239 237 233 243 207 225 220 251 304 253 218 241 267 326 94 30 299 224 231 233 233 235 233 233 248 253 208 259 190 211 267 220 273 239 245 129 242 219 256 238 227 247 263 111 241 279 283 280 255 243 331 313 284 283 287 276 279 275 304 288 300 7 75
319 325 330 331 337 343 340 339 345 347 347 24 343 356 7 357 333 286 238 278 219 235 249 221 230 0 15 199 255 236 255 242 49 257 154 198 179 162 358 342 306 279 234 249 304 353 33 73 108 171 190 203 185 184 214 200 235 287 275 211 221 243 249 261 260 257 264 128 283 273 267 257 277 101 272 346 302 302 272 268 276 280 262 291 297 347 102
314 312 327 325 333 344 336 335 343 347 350 350 330 317 359 320 269 262 278 266 259 165 253 252 256 190 243 221 269 270 259 246 250 265 269 281 300 263 278 282 273 244 24 344 251 150 113 116 122 131 149 163 176 184 208 215 197 212 241 269 260 225 235 249 194 251 269 62 250 250 247 263 62 146 99 243 297 278 284 283 278 279 269 272 277 241 138
311 300 321 320 325 337 337 331 338 342 352 335 313 309 5 321 301 303 293 285 281 250 240 227 212 259 262 271 270 264 268 279 277 272 270 272 276 269 261 273 252 292 338 294 174 177 190 166 158 157 154 166 183 199 211 215 224 219 245 247 265 250 230 227 226 259 277 255 230 245 266 74 255 105 267 44 266 279 286 280 264 250 248 253 265 283 152
311 296 311 315 319 331 338 329 332 339 348 340 315 310 304 296 283 266 264 281 262 267 301 290 253 241 239 244 257 268 275 269 267 260 265 253 262 269 276 259 278 310 293 248 217 187 176 174 177 194 178 195 180 224 205 212 229 246 238 232 238 266 285 257 259 174 265 262 271 276 328 290 238 232 222 241 292 288 294 296 293 346 255 232 242 213 163
305 290 303 312 317 319 335 324 324 335 340 334 309 292 279 263 258 283 319 271 279 296 267 267 31 9 315 269 257 264 246 254 262 250 241 265 262 268 276 282 302 281 261 229 201 205 217 196 212 212 197 207 227 217 138 228 184 208 237 240 232 233 254 225 259 210 238 275 277 259 252 256 184 159 55 35 288 296 288 288 292 241 248 226 219 215 181
309 308 294 307 312 316 322 319 318 324 333 329 302 293 284 296 269 261 279 286 306 268 226 5 8 329 293 267 259 270 281 283 269 281 264 243 251 249 209 266 275 250 225 222 230 214 206 204 216 218 228 222 98 216 210 170 210 167 196 203 220 223 229 247 245 245 213 243 254 263 273 282 26 91 107 96 66 347 308 259 251 34 324 206 197 195 199
309 298 286 294 305 308 318 313 311 316 320 330 315 311 282 136 241 248 262 244 236 269 33 285 337 300 283 251 216 230 228 257 314 270 255 224 206 289 262 304 263 219 203 215 205 219 200 217 227 230 216 90 172 229 87 225 250 192 172 207 219 217 215 221 229 246 247 258 254 258 240 286 129 127 153 138 80 185 256 258 194 249 5 196 206 199 187
304 292 279 293 296 304 314 310 305 310 311 313 295 295 285 166 252 248 241 258 270 268 272 305 260 248 258 352 309 4 312 262 245 233 255 287 286 250 334 320 222 186 224 223 204 214 218 213 218 217 220 95 73 102 247 167 243 261 235 216 211 208 221 221 249 248 237 232 269 276 265 158 129 154 134 119 130 282 258 263 48 14 98 121 200 200 173
299 294 282 280 287 295 308 302 299 300 312 329 302 276 239 197 209 237 271 269 245 259 86 62 303 292 330 309 279 301 316 327 328 293 273 246 194 4 297 282 302 213 183 221 202 219 217 209 228 243 222 157 212 232 118 225 232 171 224 216 227 231 242 237 256 256 258 249 253 265 282 77 120 144 144 141 187 233 293 44 251 295 103 153 222 198 181
295 280 263 273 287 292 293 292 293 301 308 314 293 289 311 215 221 233 258 265 269 268 281 276 273 270 274 279 266 236 220 213 236 264 277 272 57 315 236 220 188 270 201 217 220 218 223 215 206 203 233 197 190 65 233 217 346 241 222 239 272 221 225 225 224 241 257 258 259 259 258 109 185 129 153 161 249 23 142 275 87 358 30 287 178 218 168
295 260 256 273 283 293 287 283 292 298 303 296 262 285 271 153 219 208 255 276 274 285 253 78 345 289 274 261 262 273 276 276 283 247 270 288 17 316 229 230 60 218 218 199 215 202 209 226 187 207 247 263 120 217 248 249 209 164 271 227 254 76 249 241 241 228 272 246 250 281 4 96 158 184 271 169 277 1 336 329 337 67 311 21 191 183 189
287 251 253 263 274 277 281 284 293 302 308 293 260 264 272 172 192 218 263 274 256 253 295 330 311 285 275 270 270 266 267 263 266 283 286 283 236 267 316 300 287 276 343 330 237 207 211 242 173 215 207 183 136 229 223 243 259 129 156 180 238 157 266 347 299 133 250 305 335 82 133 102 169 245 317 332 350 337 339 308 311 301 129 145 245 161 168
270 245 252 260 264 268 275 275 285 300 305 297 251 248 255 223 197 198 239 260 259 265 270 270 267 270 263 256 247 246 246 250 261 257 255 267 272 245 252 268 262 184 289 354 331 303 255 206 214 219 228 208 219 208 207 259 283 150 228 194 294 242 287 17 268 241 249 270 321 101 133 148 154 220 297 307 338 336 325 322 289 58 19 98 189 169 152
251 239 252 259 263 275 284 284 284 296 314 312 257 234 246 283 321 278 230 247 272 295 274 230 254 243 254 260 157 195 218 233 236 242 240 238 251 253 231 232 272 250 177 44 352 301 326 271 182 174 218 175 209 227 230 221 249 253 261 192 219 212 191 223 237 96 267 237 145 214 187 144 196 248 81 9 276 304 296 263 298 212 182 155 185 189 174
243 248 255 257 275 284 279 284 288 298 311 320 259 228 258 275 245 254 253 259 253 278 297 279 248 294 335 315 265 248 233 237 224 221 222 217 230 248 295 51 340 354 348 336 320 273 241 248 181 194 218 131 220 238 163 289 206 183 260 248 190 205 192 235 241 233 247 335 108 92 95 246 317 270 202 194 191 208 243 222 186 174 180 181 158 177 142
225 239 248 259 281 284 274 269 282 294 281 297 308 251 228 237 228 225 247 272 282 274 277 289 39 132 241 281 263 281 288 243 231 218 216 217 222 237 264 282 277 295 301 292 286 274 265 254 237 218 222 185 278 247 224 158 358 144 255 305 26 97 161 235 193 239 204 132 198 156 175 183 164 167 309 13 137 163 195 182 173 186 163 147 132 105 119
241 243 248 258 266 275 284 289 289 285 282 265 262 257 241 239 240 241 230 248 259 238 224 249 284 286 338 302 295 281 245 232 226 224 217 217 223 228 239 252 267 280 282 280 257 264 262 261 240 227 230 167 186 257 112 184 222 207 233 145 156 176 224 188 217 234 235 276 171 175 222 183 154 155 160 166 172 187 173 172 168 158 147 145 135 112 106
228 235 253 256 262 274 294 299 281 267 272 286 281 267 259 250 233 237 243 251 248 297 324 308 302 314 312 275 276 239 221 216 220 216 217 215 216 223 230 236 244 259 256 258 249 212 225 229 226 90 100 131 191 169 202 78 212 243 265 186 177 227 206 198 227 245 287 53 131 165 81 85 88 120 143 152 166 177 181 179 168 152 150 144 137 131 124
218 234 239 250 264 277 287 311 313 256 279 277 273 258 242 235 235 225 232 235 258 271 283 288 289 272 295 24 312 278 217 217 214 220 219 217 215 217 224 226 234 241 252 267 277 288 242 233 66 191 184 103 237 158 171 207 207 234 220 133 184 262 175 216 327 321 84 100 132 147 139 115 118 118 123 132 123 107 107 111 117 150 143 130 127 125 118
225 234 246 256 266 274 291 296 317 319 307 284 271 261 259 209 205 218 208 216 215 236 271 303 303 323 351 305 290 299 242 214 228 222 222 220 213 213 215 217 223 232 251 261 283 252 230 165 124 92 81 325 208 126 211 214 233 205 110 176 198 184 202 181 46 333 83 120 122 115 113 117 116 113 108 102 83 95 100 93 95 111 119 128 111 101 107
233 246 257 262 266 268 270 286 307 315 298 253 241 230 226 207 133 210 214 208 205 214 254 265 269 303 291 238 253 272 279 266 245 234 221 219 217 214 204 202 214 213 224 226 232 257 281 190 154 93 52 335 311 183 214 216 228 251 154 125 200 191 189 155 84 98 130 122 119 120 121 119 118 117 108 100 88 99 87 71 85 88 100 108 107 101 97
245 250 246 251 259 267 280 283 287 284 259 248 225 252 8 23 2 28 180 218 181 212 242 272 280 247 294 262 196 274 281 283 247 226 211 213 203 192 176 196 188 194 277 262 252 211 224 331 221 149 169 243 274 204 201 233 252 271 165 186 118 165 157 136 125 130 131 133 132 128 131 136 153 134 117 101 91 98 117 109 82 93 91 90 90 88 85
249 257 256 258 271 278 278 276 271 276 263 291 308 294 274 237 208 240 193 169 174 230 236 264 266 316 279 31 329 177 327 262 208 215 191 205 199 179 183 181 177 145 123 232 225 234 47 2 270 200 104 253 225 189 238 242 238 242 299 73 126 161 158 137 140 150 148 155 155 149 152 153 127 110 111 104 104 103 103 109 113 89 85 84 87 85 79
267 264 265 273 277 277 268 268 265 260 261 261 252 219 215 188 167 197 198 192 229 225 241 260 275 257 278 349 259 106 321 258 209 216 204 157 189 201 180 169 181 144 300 265 218 302 337 14 211 249 132 216 215 235 235 250 254 236 202 127 151 156 155 144 150 158 159 166 172 159 145 128 123 123 123 111 101 99 101 109 109 98 95 96 79 83 98
265 261 269 278 286 296 289 277 263 231 243 238 245 217 100 148 178 167 192 214 212 186 213 231 255 288 267 222 243 92 344 262 212 197 236 152 218 215 165 195 151 194 187 232 279 272 247 223 298 261 252 300 255 246 241 215 139 275 193 171 164 162 157 158 165 169 166 155 166 154 138 136 141 142 137 130 121 123 122 118 121 120 114 107 117 120 123
264 266 275 287 289 278 257 226 239 236 221 229 198 82 104 147 160 168 197 219 313 323 277 289 248 261 282 253 228 88 336 301 0 204 227 154 182 177 214 195 201 190 113 196 207 196 204 274 258 236 162 214 228 230 218 156 202 248 314 202 182 186 185 171 159 168 159 157 155 149 150 154 155 144 140 136 132 133 131 126 126 124 125 130 136 142 144
271 277 281 281 267 236 229 232 191 221 261 88 95 123 126 121 103 130 170 246 226 228 275 305 270 253 248 285 326 284 302 227 198 216 171 207 174 159 202 195 212 139 193 217 203 198 192 171 229 243 220 232 226 210 187 167 226 257 351 80 192 219 207 170 158 155 152 148 152 157 157 159 150 145 147 148 144 142 140 138 140 140 138 134 136 145 146
269 282 271 249 229 233 209 202 202 127 112 119 142 148 162 203 161 174 163 214 210 189 219 223 251 261 247 246 242 60 289 178 242 227 154 41 194 159 203 220 184 177 221 212 229 211 182 186 225 233 217 224 235 169 194 207 223 223 215 168 183 197 201 167 152 154 152 154 162 163 161 162 157 155 156 155 155 154 152 145 144 140 133 133 135 135 133
242 235 230 236 249 230 253 107 86 123 160 157 225 233 183 194 189 194 204 198 182 221 206 217 240 238 239 241 249 224 304 305 261 264 214 92 271 156 259 214 150 213 206 214 178 172 226 211 225 228 238 203 196 215 215 205 167 133 129 158 189 190 182 175 174 168 171 176 176 173 168 167 164 162 160 158 158 156 151 151 147 143 137 131 132 135 132
204 209 212 206 229 248 51 106 109 175 170 195 201 228 200 187 219 204 148 210 228 230 196 233 227 237 239 244 255 210 139 242 240 222 200 132 336 271 99 302 91 240 232 235 200 190 240 230 205 225 236 220 212 190 197 188 215 129 139 149 182 197 189 186 190 191 181 184 176 171 172 165 160 157 159 159 158 156 157 157 153 146 139 138 139 138 136
207 232 227 238 38 4 328 331 217 226 192 191 184 218 263 220 218 217 200 223 233 225 205 249 195 218 206 226 234 236 126 259 335 207 264 181 346 301 197 227 90 242 229 237 129 187 217 243 239 233 237 222 207 178 202 203 209 169 142 154 174 196 195 193 193 190 193 193 183 173 166 161 159 158 158 159 158 158 157 155 154 152 145 142 145 140 134
355 322 335 325 278 277 270 221 221 174 183 305 214 212 206 237 177 225 230 252 227 226 193 207 225 225 200 201 208 227 195 172 320 304 267 188 158 237 205 157 174 243 242 278 110 208 222 234 231 234 204 185 177 183 198 228 213 170 157 160 183 199 195 193 195 194 188 175 174 169 162 160 158 157 157 158 155 153 151 153 152 150 148 146 141 139 142
298 264 280 284 264 228 220 207 173 240 171 169 167 294 218 228 225 236 213 229 207 241 130 207 281 26 76 227 197 226 329 126 227 172 259 164 117 256 210 200 201 231 238 93 219 230 225 238 241 243 171 186 205 212 209 220 208 169 153 168 183 201 195 187 191 188 177 160 164 165 160 160 158 157 157 153 150 149 148 149 151 151 148 146 143 143 145
260 252 229 217 221 176 190 195 152 151 168 210 185 202 199 228 217 210 227 204 184 217 185 206 179 219 190 192 221 144 173 185 243 184 204 108 222 197 213 211 222 143 71 239 231 234 236 238 244 251 221 226 218 211 204 208 210 173 152 165 183 186 182 178 178 175 165 169 173 165 158 154 150 152 155 154 153 149 149 148 149 147 144 141 142 144 144
258 215 235 218 211 157 125 298 211 204 219 200 221 239 216 231 243 219 232 84 234 255 141 210 133 233 193 142 216 191 227 172 107 259 176 183 223 217 220 259 267 141 237 242 235 243 247 245 229 240 241 240 233 220 202 203 196 200 182 166 177 184 175 175 178 176 169 171 170 162 157 150 147 151 155 155 155 151 149 148 148 145 145 144 142 141 145
224 214 179 157 77 274 218 185 153 217 232 217 220 227 247 257 283 296 90 187 250 160 188 147 228 250 224 160 241 181 207 179 178 195 189 215 241 228 308 116 200 249 240 244 251 255 247 250 248 254 234 236 235 222 203 195 190 186 170 175 179 179 176 175 178 178 169 167 164 162 153 152 150 150 150 151 151 152 150 145 148 147 147 146 148 146 148
280 257 246 259 192 208 217 214 205 219 246 234 237 249 255 283 307 298 26 237 261 144 187 187 332 337 314 192 192 185 215 173 232 124 203 226 216 135 221 250 237 220 247 247 247 251 256 266 281 269 305 300 264 220 199 188 178 184 193 181 172 175 171 175 179 176 169 163 160 154 150 153 150 147 143 143 144 146 144 147 150 150 152 151 147 144 146
239 297 265 209 215 190 210 224 239 241 234 251 256 267 302 297 261 221 105 316 310 262 220 201 207 157 207 188 251 235 183 204 202 158 216 197 47 268 330 252 251 243 239 250 253 266 287 5 309 278 152 204 229 224 205 192 185 187 182 174 173 171 171 174 175 167 161 162 157 154 152 151 149 148 149 144 139 139 144 148 150 149 144 140 142 146 148
292 208 195 245 267 251 235 240 244 243 223 206 222 234 221 225 218 106 33 293 263 246 10 302 68 86 288 206 215 168 222 218 193 180 185 217 223 182 207 264 269 248 220 225 242 264 300 245 216 302 259 207 205 203 196 189 186 183 180 174 173 170 169 173 167 159 158 158 155 152 154 151 146 144 140 138 137 139 143 145 147 147 146 145 147 149 151
228 215 248 257 249 234 235 302 255 251 229 211 212 215 203 234 134 90 323 172 91 105 135 109 129 195 250 262 215 196 195 201 185 151 211 197 187 112 120 244 237 238 250 240 250 232 239 275 2 289 282 257 203 199 187 181 177 176 169 160 155 156 166 175 164 157 157 156 154 151 145 143 145 144 147 146 139 136 140 144 146 145 147 148 148 149 149
250 264 251 241 256 299 220 228 239 240 220 214 216 209 217 250 157 144 43 337 213 167 151 215 167 227 201 210 224 202 221 160 188 195 191 157 116 175 234 239 236 234 308 314 4 9 26 346 332 337 306 236 156 173 177 172 166 164 157 157 155 144 142 151 146 144 143 144 142 140 141 144 143 138 131 127 129 133 131 136 141 143 143 144 146 146 145
208 215 231 218 235 254 267 289 281 258 279 289 242 228 249 212 128 108 0 277 240 231 197 166 207 199 200 217 213 251 110 181 205 174 192 182 196 232 236 265 339 241 245 275 357 6 2 358 1 333 337 10 76 144 153 155 157 155 156 157 158 154 155 157 151 137 124 125 134 137 131 127 126 124 127 131 135 137 139 140 143 142 140 140 139 139 138